Wind_Speed
11 11 11 12 13 13 14 14 15 15 16 17 17 18 18 19 20 21 21 21 22 23 23 24 25 26 26 26 26 26 26 27 28 29 29 29 29 30
12 12 12 12 13 13 13 14 15 16 16 17 18 19 20 20 21 22 22 23 23 24 24 24 24 24 25 26 27 27 28 29 30 30 29 29 30 30
13 13 13 13 13 13 14 15 16 16 17 18 19 19 20 20 21 22 22 23 23 24 25 25 24 25 26 26 27 28 29 29 30 29 29 30 31 32
14 13 13 13 13 13 15 15 16 17 17 18 19 20 20 20 21 22 23 24 24 24 24 24 24 25 26 27 27 28 29 29 29 30 31 31 32 32
14 14 14 14 14 14 15 16 17 17 18 18 19 20 21 22 22 24 24 24 24 24 24 24 24 25 26 27 27 27 28 29 30 30 31 31 32 33
15 15 15 15 15 16 17 17 18 18 18 19 20 20 22 22 23 24 24 24 24 24 24 25 26 26 27 27 27 28 28 29 30 30 31 31 32 32
16 16 16 16 17 18 19 19 19 19 19 20 20 21 22 22 23 24 24 24 24 25 25 26 26 27 27 27 27 28 28 29 29 30 30 31 32 32
17 17 17 18 19 19 20 20 20 20 20 21 21 21 22 22 23 23 24 24 25 26 26 26 27 27 27 28 28 28 28 28 29 29 30 31 32 33
18 18 19 19 19 20 19 19 20 20 21 21 21 22 22 23 23 23 24 24 25 25 26 26 27 27 27 28 28 28 28 28 28 29 30 31 31 32
20 20 20 20 20 20 21 21 21 21 21 22 22 22 22 23 23 24 24 25 25 25 26 26 26 27 27 27 27 27 27 28 29 29 29 29 30 30
21 21 21 21 22 22 22 22 22 22 22 22 23 23 23 24 24 25 25 26 26 26 26 26 27 27 27 27 27 27 28 28 28 28 28 29 29 29
23 22 22 22 22 22 22 22 23 23 23 23 24 24 25 25 26 26 27 27 27 26 27 27 27 27 28 28 28 28 28 28 28 29 28 28 29 29
23 23 23 23 23 23 23 23 24 24 24 25 25 26 26 26 26 27 27 27 26 26 27 27 27 27 28 28 28 28 28 28 28 29 29 29 29 29
24 24 24 23 23 24 24 24 24 25 26 26 26 27 27 27 27 28 27 27 26 26 26 27 28 28 28 28 28 28 28 28 28 28 29 29 29 28
24 24 24 24 24 25 25 25 26 26 27 27 27 27 27 27 28 27 27 26 26 27 27 27 27 28 28 28 28 28 28 28 28 28 28 28 28 28
25 25 25 25 26 26 26 26 27 27 28 27 27 26 26 26 27 27 26 26 27 27 27 28 28 28 28 28 28 28 28 28 28 28 28 28 27 27
26 26 26 26 26 26 27 27 27 27 28 28 27 26 26 26 27 27 27 27 27 27 27 28 28 28 29 28 29 28 28 28 27 27 27 27 27 27
26 26 26 26 27 27 28 28 28 28 28 27 27 27 27 27 27 27 27 28 28 28 28 28 28 28 29 29 29 29 28 28 27 27 26 26 26 27
27 27 27 28 28 29 28 28 28 28 28 27 28 28 27 27 27 28 28 28 28 29 29 29 29 29 29 30 30 29 28 27 27 27 27 27 26 27
28 28 29 29 29 29 29 29 29 28 28 28 28 28 28 28 28 28 28 29 29 29 29 30 30 30 30 30 30 29 29 28 28 28 28 27 27 27
29 29 30 30 30 29 29 29 28 28 28 28 28 28 28 28 28 28 29 29 29 29 29 30 30 31 31 30 29 29 29 29 29 29 29 28 28 28
30 30 30 30 30 29 28 28 27 27 27 28 28 28 28 28 28 28 29 29 29 29 29 30 30 30 30 29 29 29 29 29 30 30 30 29 29 29
30 30 30 29 29 29 28 28 28 28 28 28 28 28 28 29 29 29 29 29 29 29 30 30 29 29 30 30 30 30 30 30 30 30 30 30 30 30
Wind_Direction
315 311 307 305 302 300 301 301 298 294 292 291 289 289 290 290 290 290 290 289 287 287 287 287 283 282 282 283 284 283 279 278 280 280 278 278 277 277
319 315 309 307 305 303 303 304 301 297 294 292 292 290 292 295 294 292 291 290 290 289 289 289 288 287 286 286 287 287 283 281 280 280 280 279 279 278
319 317 313 311 308 305 304 303 302 300 297 293 292 294 295 296 296 296 294 294 295 295 294 294 292 290 289 288 288 287 285 284 283 280 279 278 277 277
319 316 315 311 309 310 309 307 304 302 300 297 295 296 297 297 297 297 297 295 299 299 297 296 295 292 291 291 291 289 286 286 284 282 282 279 278 278
316 315 315 313 313 312 309 307 307 306 303 301 299 298 298 298 297 298 299 298 299 299 299 298 297 295 294 292 292 292 290 289 288 287 285 282 281 280
318 315 313 312 310 310 309 309 309 309 305 304 303 301 302 302 300 300 300 299 299 300 299 298 297 297 296 295 293 293 292 291 290 289 286 285 284 282
320 318 314 311 309 306 306 308 308 307 305 305 305 304 303 303 303 303 302 302 301 300 301 301 300 299 298 297 297 296 295 294 291 290 288 287 286 285
319 317 314 313 310 309 308 309 308 307 307 307 307 307 306 306 306 305 304 304 303 302 303 302 301 299 298 299 298 297 296 294 293 292 291 291 290 289
319 317 314 313 312 312 312 311 311 310 310 308 308 308 307 307 307 306 305 306 305 304 304 304 303 302 302 301 299 298 297 296 295 294 294 293 292 291
317 317 315 314 313 313 311 311 311 311 310 308 309 308 308 309 307 306 306 305 306 307 305 306 306 306 305 304 302 301 299 298 298 297 296 295 295 294
315 314 315 314 314 313 311 311 311 310 308 308 308 308 308 308 307 306 306 306 306 306 307 307 307 306 306 305 303 302 301 300 301 301 300 298 297 296
313 313 312 312 311 311 311 310 310 310 309 309 309 308 308 307 307 307 307 306 306 305 306 307 307 307 307 306 305 303 302 301 301 302 302 301 300 299
311 311 312 311 310 310 309 309 309 309 309 309 308 308 307 307 306 306 306 305 305 305 306 307 307 307 308 307 306 304 303 302 301 302 302 302 301 300
309 310 310 310 309 308 308 307 307 307 307 308 308 308 307 306 305 305 305 304 304 305 305 306 307 307 308 308 307 306 305 303 302 302 302 302 302 301
306 307 308 309 308 307 307 306 305 305 306 307 307 308 307 306 305 306 306 305 305 305 305 305 306 306 307 308 308 307 306 305 304 304 304 304 303 302
304 306 307 307 308 309 308 307 306 306 307 307 307 308 308 308 307 307 306 306 306 306 305 305 305 306 306 307 307 307 306 306 306 306 306 305 304 303
303 305 306 307 307 308 308 307 307 307 308 308 307 307 307 306 306 305 305 306 306 306 305 305 305 306 306 306 307 307 307 307 307 307 306 306 305 305
302 304 305 306 307 308 308 308 307 306 306 306 306 306 306 306 306 306 307 307 307 306 305 305 305 306 306 306 307 307 307 307 307 307 307 306 305 305
302 303 303 304 305 306 306 307 308 308 306 305 305 306 306 306 306 307 307 308 308 308 306 306 306 305 305 305 305 305 306 306 307 307 306 306 306 305
300 301 302 303 303 304 305 306 306 306 305 305 305 305 306 306 306 307 307 307 308 307 307 307 307 306 306 305 304 304 304 305 306 307 306 306 306 305
300 301 301 302 302 303 304 305 306 306 305 305 306 307 306 306 307 307 308 308 308 308 308 308 308 307 306 304 304 303 303 304 305 306 306 305 305 305
299 300 301 301 302 303 303 305 306 306 306 306 306 306 306 307 307 307 307 308 309 308 308 308 308 308 308 306 305 304 303 304 306 307 306 306 306 306
298 298 299 301 302 302 303 303 303 304 305 305 306 306 306 307 307 307 308 308 309 309 308 308 308 308 308 307 306 305 304 304 304 304 305 305 306 307
Height
5872 5870 5869 5867 5866 5864 5863 5862 5861 5859 5857 5856 5855 5854 5852 5851 5850 5849 5847 5846 5844 5842 5841 5840 5839 5837 5836 5834 5833 5832 5831 5830 5829 5828 5827 5826 5826 5825
5869 5867 5866 5864 5863 5861 5860 5858 5857 5855 5854 5852 5851 5849 5848 5846 5845 5843 5842 5840 5838 5837 5835 5834 5832 5831 5829 5828 5826 5825 5824 5823 5822 5820 5819 5819 5818 5817
5867 5865 5863 5861 5859 5858 5856 5855 5853 5851 5850 5848 5847 5845 5844 5842 5840 5839 5837 5835 5833 5831 5829 5828 5826 5824 5822 5821 5819 5817 5816 5815 5813 5812 5811 5810 5809 5808
5864 5862 5860 5858 5857 5855 5853 5851 5850 5848 5846 5844 5843 5841 5839 5838 5836 5834 5832 5830 5828 5826 5824 5821 5819 5817 5815 5814 5812 5810 5809 5807 5805 5804 5802 5802 5801 5799
5861 5859 5857 5855 5854 5852 5850 5848 5846 5844 5842 5840 5838 5836 5835 5833 5831 5829 5827 5825 5822 5820 5818 5815 5813 5811 5808 5807 5805 5802 5801 5799 5797 5795 5794 5792 5791 5789
5859 5856 5854 5852 5851 5849 5847 5845 5842 5840 5838 5836 5834 5832 5830 5827 5825 5823 5821 5819 5817 5814 5812 5809 5807 5804 5802 5799 5797 5795 5793 5791 5789 5787 5785 5783 5782 5780
5856 5853 5851 5849 5847 5845 5843 5840 5838 5836 5834 5832 5830 5827 5825 5823 5820 5818 5815 5813 5810 5808 5805 5803 5800 5797 5795 5792 5789 5787 5785 5783 5781 5779 5777 5774 5772 5771
5853 5850 5848 5845 5843 5841 5838 5836 5834 5832 5830 5827 5825 5822 5820 5817 5815 5812 5809 5807 5804 5802 5798 5796 5793 5790 5788 5785 5782 5780 5778 5775 5773 5770 5768 5766 5763 5761
5849 5847 5844 5842 5839 5837 5834 5832 5830 5827 5825 5823 5820 5817 5815 5812 5809 5807 5804 5801 5798 5795 5792 5789 5786 5783 5781 5778 5775 5772 5770 5767 5764 5762 5759 5757 5754 5752
5846 5843 5840 5838 5835 5833 5830 5828 5825 5822 5820 5818 5815 5812 5809 5806 5804 5801 5798 5795 5792 5789 5786 5783 5780 5777 5774 5771 5768 5765 5762 5759 5756 5754 5751 5748 5745 5743
5842 5839 5836 5833 5831 5828 5826 5823 5820 5818 5815 5812 5810 5807 5804 5801 5798 5795 5792 5789 5786 5783 5780 5777 5773 5770 5767 5764 5761 5758 5755 5752 5749 5746 5743 5740 5737 5734
5837 5835 5832 5829 5826 5823 5821 5818 5815 5813 5810 5807 5804 5801 5798 5795 5792 5789 5786 5782 5779 5776 5773 5770 5767 5763 5760 5757 5754 5751 5748 5744 5741 5738 5735 5732 5729 5726
5833 5830 5827 5824 5821 5819 5816 5813 5810 5807 5804 5801 5798 5795 5792 5789 5785 5782 5779 5776 5773 5770 5766 5763 5760 5757 5753 5750 5747 5744 5740 5737 5734 5730 5727 5724 5721 5718
5828 5825 5822 5819 5816 5813 5810 5807 5804 5801 5798 5795 5792 5789 5786 5782 5779 5775 5772 5769 5766 5763 5760 5756 5753 5750 5746 5743 5740 5736 5733 5730 5726 5723 5720 5716 5713 5710
5822 5819 5816 5813 5810 5807 5804 5801 5798 5795 5792 5789 5786 5782 5779 5775 5772 5768 5765 5762 5759 5756 5753 5749 5746 5743 5740 5736 5733 5729 5726 5722 5719 5715 5712 5709 5705 5702
5816 5813 5810 5807 5804 5801 5798 5794 5791 5788 5785 5782 5779 5775 5772 5769 5765 5762 5759 5755 5752 5749 5745 5742 5739 5736 5732 5729 5726 5722 5719 5715 5712 5708 5704 5701 5698 5695
5809 5807 5804 5801 5798 5795 5791 5788 5784 5780 5777 5775 5772 5768 5765 5762 5759 5755 5752 5749 5745 5742 5739 5735 5732 5728 5725 5722 5718 5715 5711 5708 5704 5701 5697 5694 5690 5687
5803 5800 5797 5794 5791 5788 5784 5781 5778 5774 5771 5768 5764 5761 5758 5755 5752 5748 5745 5742 5738 5735 5732 5728 5725 5721 5718 5714 5711 5707 5704 5700 5697 5693 5690 5687 5684 5680
5796 5793 5790 5787 5784 5781 5777 5774 5770 5767 5763 5760 5757 5754 5751 5748 5745 5741 5738 5735 5731 5728 5724 5721 5717 5714 5710 5707 5703 5700 5696 5693 5690 5686 5683 5680 5676 5673
5788 5786 5783 5780 5776 5773 5770 5766 5763 5759 5756 5753 5750 5747 5744 5741 5737 5734 5731 5727 5724 5720 5717 5713 5709 5706 5702 5699 5696 5692 5688 5685 5682 5679 5676 5672 5669 5666
5781 5778 5775 5772 5769 5765 5762 5759 5755 5752 5749 5746 5743 5740 5736 5733 5730 5727 5723 5720 5716 5713 5709 5705 5702 5698 5694 5691 5688 5684 5681 5677 5674 5671 5668 5665 5661 5658
5773 5770 5767 5764 5761 5757 5754 5751 5748 5745 5742 5739 5736 5732 5729 5726 5723 5719 5716 5712 5709 5705 5701 5698 5694 5690 5687 5683 5680 5676 5673 5670 5666 5662 5659 5656 5653 5650
5765 5762 5759 5756 5752 5750 5747 5744 5741 5738 5735 5732 5728 5725 5722 5718 5715 5711 5708 5704 5701 5697 5693 5690 5686 5682 5679 5675 5672 5668 5665 5662 5658 5655 5651 5647 5644 5641